Rifle, CO

7:50 PM MST on December 04, 2016 (GMT -0700)
Garfield County Regional

Weather History for KRIL - July, 2014

Change the Weather History Date:

Wednesday, July 30, 2014

  Actual Average Record
Temperature  
Mean Temperature 67 °F 73 °F  
Max Temperature 79 °F 91 °F 101 °F (1934)
Min Temperature 55 °F 56 °F 41 °F (1962)
Degree Days  
Heating Degree Days 0 0  
Month to date heating degree days 0 0  
Since 1 June heating degree days 40 59  
Since 1 July heating degree days 0 0  
Cooling Degree Days 2 8  
Month to date cooling degree days 291 228  
Year to date cooling degree days 387 330  
Since 1 June cooling degree days 373 323  
Growing Degree Days 16 (Base 50)    
Moisture  
Dew Point 55 °F    
Average Humidity 66    
Maximum Humidity 93    
Minimum Humidity 39    
Precipitation  
Precipitation T in 0.05 in 0.76 in (1917)
Month to date precipitation 0.88 1.07  
Year to date precipitation 5.48 7.51  
Sea Level Pressure  
Sea Level Pressure 30.10 in    
Wind  
Wind Speed 3 mph (North)    
Max Wind Speed 14 mph    
Max Gust Speed 17 mph    
Visibility 10 miles    
Events Rain    
T = Trace of Precipitation, MM = Missing Value Source: NWS Daily Summary

Daily Weather History Graph

Daily Weather History Graph

Search for Another Location

Airport or City:

Trip Planner

Search our weather history database for the weather conditions in past years. The results will help you decide how hot, cold, wet, or windy it might be!

Date:

Astronomy

Jul. 30, 2014 Rise Set
Actual Time 6:08 AM MDT 8:25 PM MDT
Civil Twilight 5:38 AM MDT 8:55 PM MDT
Nautical Twilight 5:01 AM MDT 9:32 PM MDT
Astronomical Twilight 4:20 AM MDT 10:13 PM MDT
Moon 9:42 AM MDT (7/30) 10:10 PM MDT (7/30)
Length of Visible Light 15h 17m
Length of Day
14h 16m
Waxing Crescent, 13% of the Moon is Illuminated
Jul 30
Waxing Crescent
Aug 3
First Quarter
Aug 10
Full
Aug 17
Last Quarter
Aug 25
New

Hourly Weather History & Observations

Time (MDT) Temp. Dew Point Humidity Pressure Visibility Wind Dir Wind Speed Gust Speed Precip Events Conditions
12:53 AM 60.1 °F 57.0 °F 90% 30.10 in 10.0 mi Calm Calm - 0.00 in   Overcast
1:53 AM 60.1 °F 57.0 °F 90% 30.08 in 10.0 mi West 3.5 mph - 0.00 in   Clear
2:53 AM 60.1 °F 57.0 °F 90% 30.07 in 10.0 mi Calm Calm - N/A   Overcast
3:53 AM 59.0 °F 57.0 °F 93% 30.06 in 10.0 mi Calm Calm - N/A   Mostly Cloudy
4:53 AM 57.0 °F 55.9 °F 96% 30.08 in 10.0 mi Calm Calm - N/A   Partly Cloudy
5:36 AM 57.0 °F 55.0 °F 93% 30.26 in 10.0 mi Calm Calm - N/A   Partly Cloudy
5:53 AM 57.0 °F 55.0 °F 93% 30.10 in 10.0 mi Calm Calm - N/A   Partly Cloudy
6:31 AM 55.0 °F 54.0 °F 96% 30.27 in 10.0 mi Calm Calm - N/A   Mostly Cloudy
6:53 AM 55.0 °F 54.0 °F 96% 30.12 in 10.0 mi Calm Calm - N/A   Partly Cloudy
7:13 AM 57.0 °F 55.9 °F 96% 30.27 in 2.5 mi Calm Calm - N/A   Mostly Cloudy
7:27 AM 57.0 °F 55.0 °F 93% 30.27 in 10.0 mi ENE 3.5 mph - N/A   Overcast
7:53 AM 59.0 °F 55.0 °F 87% 30.11 in 10.0 mi Calm Calm - N/A   Scattered Clouds
8:53 AM 62.1 °F 55.0 °F 78% 30.11 in 10.0 mi NNE 4.6 mph - N/A   Partly Cloudy
9:53 AM 64.9 °F 55.0 °F 70% 30.11 in 10.0 mi East 3.5 mph - N/A   Overcast
11:53 AM 72.0 °F 52.0 °F 49% 30.07 in 10.0 mi Variable 3.5 mph - N/A   Partly Cloudy
12:53 PM 75.9 °F 53.1 °F 45% 30.04 in 10.0 mi North 4.6 mph - N/A   Mostly Cloudy
1:53 PM 77.0 °F 52.0 °F 42% 30.02 in 10.0 mi Variable 5.8 mph - N/A   Clear
2:53 PM 78.1 °F 52.0 °F 40% 30.01 in 10.0 mi Variable 3.5 mph - N/A   Partly Cloudy
3:53 PM 75.0 °F 55.9 °F 51% 30.02 in 10.0 mi NNW 6.9 mph - N/A   Overcast
4:53 PM 73.9 °F 57.9 °F 57% 30.03 in 10.0 mi NNW 8.1 mph - 0.00 in Rain Light Rain
6:53 PM 73.0 °F 54.0 °F 51% 30.03 in 10.0 mi Calm Calm - N/A   Mostly Cloudy
7:53 PM 72.0 °F 55.0 °F 55% 30.03 in 10.0 mi Calm Calm - N/A   Mostly Cloudy
10:53 PM 66.0 °F 57.0 °F 73% 30.07 in 10.0 mi WNW 3.5 mph - N/A   Clear